Powrót do katalogu

SL-12 DEB

AktywnyHEO
NORAD 25805·DEBRIS·🇷🇺 Russia

Wystrzelony Sep 16, 1987 z Baikonur Cosmodrome

Loading…

Następne Przeloty (najbliższe 24 godziny)

TLE

ŚwieżeSource: Space-Track

Epoka: Sep 9, 2026, 14:41 UTC

1 25805U 87079Q   26252.61245443  .00010870  00000-0  63751-2 0  9997
2 25805  64.8413 272.2073 5263760  33.1521 350.9647  5.08468033 57592

Śledź SL-12 DEB w czasie rzeczywistym z AllMySat

Download on the App Store